Погода в Ланкаране

Погода в Ланкаране : погода сейчас, прогноз погоды и архив. Всё, что Вы хотите узнать о погоде в Ланкаране!

Поиск расширенной информации на нашем сайте:

Другие новости

Новости СМИ2

Главная страница сайта

Новости сайта

03.07.2017

Напоминаем, что на нашем специализированном сайте Метеоцентр.Азия вы можете получить высокодетализированные автоматические прогнозы погоды по пунктам России, СНГ и мира в авиационном формате (включающие направление и скорость ветра, видимость, явления погоды, количество и форму облачности, нижнюю и верхнюю границу облачности).


Погода в Ланкаране - сегодня

Время (UTC), дата Ветер
(°,м/с) 
Видим.   Явления Облачность Т
(°С)
Тd
(°С)
f(%) Тe
(°С)
Pmin
(гПа)
dP
(гПа)
Po
(мм)
O2
(г/м3)
Тmin Tmax R s Состояние
почвы
21 14.11.18 340 (С) 4000 м  слаб. дождь  10/10 300 м 
[Frnb|Ns]
+7.7 +7.3 97 +9  1022.9  -1.4  768  300           
00 15.11.18 320 (СЗ) 4000 м  дождь  10/10 300 м 
[Frnb|Ns]
+7.4 +7 97 +7  1021.9  -1  768  300           
03 15.11.18 340 (С) 4000 м  {дождь}  10/10 600 м 
[Sc]
+7.4 +7 97 +7  1021.6  -0.3  767  300           
06 15.11.18 320 (СЗ) 4000 м    10/10 600 м 
[Sc]
+8.5 +7.8 95 +10  1022.2  0.6  768  299  +7.9    10     
09 15.11.18 360 (С) 4000 м    10/10 600 м 
[Sc]
+10.8 +8.8 87 +11  1021.7  -0.5  767  296           
12 15.11.18 340 (С) 4000 м    10/10 600 м 
[Sc]
+11.1 +8.6 85 +12  1020.8  -1  767  295           
15 15.11.18 320 (СЗ) 4000 м    10/10 600 м 
[Sc]
+10.3 +9.1 92 +11  1021.2  0.4  767  296           
21 15.11.18 320 (СЗ) 4000 м    10/10 600 м 
[Sc]
+9.9 +8.9 93 +10  1021.1  0.1  767  297           
00 16.11.18 320 (СЗ) 4000 м    10/10 600 м 
[Sc]
+9.8 +9 95 +11  1021  0.1  767  297           
03 16.11.18 340 (С) 4000 м    10/10 600 м 
[Sc]
+9.8 +8.4 91 +11  1021  767  297           
09 16.11.18 340 (С) 10 км    10/10 600 м 
[Sc]
+11.9 +8.9 82 +12  1021.2  -0.8  767  295           
12 16.11.18 340 (С) 4000 м    10/10 600 м 
[Sc]
+22.6 +9.9 44 +23  1021.1  -0.1  767  284           
15 16.11.18 290 (З) 4000 м    10/10 600 м 
[Sc]
+11.9 +10.2 89 +13  1022.4  1.3  768  295           
18 16.11.18 360 (С) 4000 м    6/0 средняя 
[Ac lent]
+10.8 +10 95 +12  1023.1  0.7  768  296    +13.7       
21 16.11.18 340 (С) 4000 м    10/10 600 м 
[Sc]
+11.3 +10.4 94 +13  1022.8  -0.3  768  295           
00 17.11.18 340 (С) 4000 м    10/10 600 м 
[Sc]
+11.1 +10.3 95 +13  1022.7  -0.1  768  296           
03 17.11.18 340 (С) 4000 м    10/10 600 м 
[Sc]
+11.3 +10.4 94 +13  1023.2  0.5  769  295           
09 17.11.18 340 (С) 4000 м    10/8 600 м средняя 
[Sc|Ac lent]
+15.8 +10.2 69 +17  1022.5  -1.1  768  291           
12 17.11.18 340 (С) 4000 м    10/10 600 м 
[Sc]
+14.9 +9.7 71 +16  1033  0.5  776  295           
15 17.11.18 200 (Ю) 4000 м    6/0 средняя 
[Ac lent]
+12.4 +10.5 88 +15  1024  769  295           
21 17.11.18 200 (Ю) 4000 м    ясно 
+9.2 +7.7 90 +10  1024.3  -0.4  769  299           
00 18.11.18 тихо ()   4000 м    ясно 
+7.3 +6.4 94 +7  1024.6  0.3  770  301           
03 18.11.18 250 (З) 4000 м    10/10 600 м 
[Sc]
+6.8 +6.1 95 +8  1024.8  0.2  770  302           
06 18.11.18 340 (С) 10 км    3/0 средняя 
[Ac lent]
+10.5 +7.1 79 +12  1025.1  0.3  770  298  +11.1       
09 18.11.18 340 (С) 10 км    3/0 средняя 
[Ac lent]
+14.2 +7 62 +15  1023.4  -1.7  769  293           
Время (UTC), дата Ветер
(°,м/с) 
Видим.   Явления Облачность Т
(°С)
Тd
(°С)
f(%) Тe
(°С)
Pmin
(гПа)
dP
(гПа)
Po
(мм)
O2
(г/м3)
Тmin Tmax R s Состояние
почвы

Для получения пояснительной информации подведите курсор к названию столбца.

ПОГОДА в Ланкаране - архив

Всё, что Вы хотите узнать о погоде в Ланкаране - удобно и подробно!

Выберите нужную дату (начиная с 1 января 2015* года) и нажмите кнопку "Найти".
Будут отображены архивные сводки погоды по пункту Ланкаран, начиная с указанной даты.


Отображать данные в формате CSV (для использования в таблицах Excel)


Внимание! Наш архив погоды предназначен исключительно для личного некоммерческого использования в познавательных целях. Если Вам необходимы официальные справки о состоянии погоды (для производственных, юридических, коммерческих и т.п. целей), обращайтесь в органы Росгидромета.

*Примечание: данная дата относится к архиву по метеостанциям СССР (Россия, СНГ, Балтия).
Архив по метеостанциям Зарубежной Европы и Азии (кроме Китая) хранится 10 дней, по другим регионам земного шара (Китай, Африка, Америка, Австралия, Океания) - 1 день.

Ланкаран - район местоположения метеостанции


Название, широта, долгота, высота метеостанции:
Ланкаран (аэропорт) 38.7°ш. 48.8°д. -12 м над ур. моря [Азербайджан]

Дополнительная информация

В oтличие oт бoльшинства пoгoдных сайтoв мы публикуем пoдрoбную метеoинфoрмацию в детальнoм прoфессиoнальнoм фoрмате.

Характеристики температуры и влажнoсти вoздуха измеряются на высoте 2 м в тени вдали oт зданий и деревьев.
Скoрoсть ветра измеряется на высoте 10 м (на урoвне рoста челoвека скoрoсть ветра ниже в 1.5-2 раза). Если метеoстанция нахoдится в гoрoде или в лесу, тo скoрoсть ветра занижена на 2-4 м/с пo сравнению с oткрытым местoм. Скoрoсть ветра над акватoриями крупных рек и oзёр, а также на вершинах хoлмoв на 2-5 м/с выше, чем в oбычных услoвиях.
Атмoсфернoе давление в разных тoчках местнoсти мoжет значительнo oтличаться oт давления на метеoстанции, в зависимoсти oт услoвий рельефа (при пoдъёме на 10 м давление пoнижается примернo на 1 мм рт.ст.).